Saint Ignace, MI

1:38 AM EST on January 21, 2017 (GMT -0500)
Mackinac Island

Weather History for KMCD - April, 2012

Change the Weather History Date:

Friday, April 27, 2012

  Actual Average Record
Temperature  
Mean Temperature 38 °F -  
Max Temperature 45 °F 51 °F 75 °F (1990)
Min Temperature 30 °F 34 °F 26 °F (2002)
Degree Days  
Heating Degree Days 28    
Moisture  
Dew Point 21 °F    
Average Humidity 55    
Maximum Humidity 87    
Minimum Humidity 28    
Precipitation  
Precipitation 0.00 in - - ()
Sea Level Pressure  
Sea Level Pressure 30.19 in    
Wind  
Wind Speed 7 mph (North)    
Max Wind Speed 14 mph    
Max Gust Speed 20 mph    
Visibility 10 miles    
Events      
Averages and records for this station are not official NWS values.
T = Trace of Precipitation, MM = Missing Value Source: NWS Daily Summary

Daily Weather History Graph

Daily Weather History Graph

Search for Another Location

Airport or City:

Trip Planner

Search our weather history database for the weather conditions in past years. The results will help you decide how hot, cold, wet, or windy it might be!

Date:

Astronomy

Apr. 27, 2012 Rise Set
Actual Time 6:31 AM EDT 8:41 PM EDT
Civil Twilight 5:58 AM EDT 9:14 PM EDT
Nautical Twilight 5:18 AM EDT 9:54 PM EDT
Astronomical Twilight 4:33 AM EDT 10:40 PM EDT
Moon 11:03 AM EDT (4/27) 1:33 AM EDT (4/27)
Length of Visible Light 15h 15m
Length of Day
14h 10m
Waxing Crescent, 33% of the Moon is Illuminated
Apr 27
Waxing Crescent
Apr 29
First Quarter
May 5
Full
May 12
Last Quarter
May 20
New

Hourly Weather History & Observations

Time (EDT) Temp. Windchill Dew Point Humidity Pressure Visibility Wind Dir Wind Speed Gust Speed Precip Events Conditions
12:16 AM 32.5 °F 26.2 °F 25.3 °F 75% 30.09 in 10.0 mi WNW 6.9 mph - N/A   Clear
12:36 AM 32.9 °F 25.9 °F 25.5 °F 74% 30.10 in 10.0 mi WNW 8.1 mph - N/A   Clear
12:56 AM 32.9 °F 26.7 °F 25.9 °F 75% 30.10 in 10.0 mi WNW 6.9 mph - N/A   Clear
1:16 AM 33.1 °F 25.5 °F 24.8 °F 72% 30.10 in 10.0 mi WNW 9.2 mph - N/A   Clear
1:36 AM 32.9 °F 26.7 °F 24.4 °F 71% 30.10 in 10.0 mi NW 6.9 mph - N/A   Clear
2:16 AM 33.3 °F 26.4 °F 24.8 °F 71% 30.10 in 10.0 mi NW 8.1 mph - N/A   Clear
2:36 AM 33.3 °F 27.9 °F 25.0 °F 72% 30.10 in 10.0 mi NW 5.8 mph - N/A   Clear
2:56 AM 33.1 °F 26.1 °F 25.7 °F 74% 30.10 in 10.0 mi NW 8.1 mph - N/A   Clear
3:16 AM 33.1 °F 25.5 °F 26.6 °F 77% 30.10 in 10.0 mi NW 9.2 mph - N/A   Clear
3:36 AM 32.9 °F 24.7 °F 27.1 °F 79% 30.11 in 10.0 mi NW 10.4 mph - N/A   Clear
3:56 AM 32.9 °F 26.7 °F 27.0 °F 79% 30.11 in 10.0 mi NNW 6.9 mph - N/A   Clear
4:16 AM 32.9 °F 25.3 °F 27.5 °F 81% 30.12 in 10.0 mi NNW 9.2 mph 16.1 mph N/A   Clear
4:36 AM 32.9 °F 25.3 °F 27.9 °F 82% 30.12 in 10.0 mi NNW 9.2 mph - N/A   Clear
4:56 AM 32.9 °F 25.9 °F 28.2 °F 83% 30.14 in 10.0 mi NNW 8.1 mph - N/A   Clear
5:16 AM 32.5 °F 27.1 °F 28.0 °F 83% 30.14 in 10.0 mi NNW 5.8 mph - N/A   Clear
5:36 AM 32.2 °F 26.7 °F 27.9 °F 84% 30.14 in 10.0 mi NNW 5.8 mph - N/A   Clear
5:56 AM 32.0 °F 27.5 °F 27.5 °F 83% 30.14 in 10.0 mi North 4.6 mph - N/A   Clear
6:16 AM 31.8 °F 28.5 °F 27.3 °F 83% 30.15 in 10.0 mi North 3.5 mph - N/A   Clear
6:36 AM 31.5 °F 28.1 °F 27.3 °F 85% 30.16 in 10.0 mi North 3.5 mph - N/A   Clear
6:56 AM 31.1 °F 27.7 °F 27.3 °F 86% 30.17 in 10.0 mi North 3.5 mph - N/A   Clear
7:16 AM 30.9 °F 27.5 °F 27.5 °F 87% 30.17 in 10.0 mi North 3.5 mph - N/A   Clear
7:36 AM 32.0 °F 28.7 °F 27.3 °F 83% 30.18 in 10.0 mi North 3.5 mph - N/A   Clear
7:56 AM 32.9 °F 29.8 °F 26.4 °F 77% 30.19 in 10.0 mi NNW 3.5 mph - N/A   Clear
8:16 AM 34.0 °F 28.8 °F 26.4 °F 74% 30.20 in 10.0 mi North 5.8 mph - N/A   Clear
8:36 AM 36.3 °F 31.6 °F 23.5 °F 60% 30.20 in 10.0 mi North 5.8 mph - N/A   Clear
8:56 AM 37.0 °F 33.3 °F 22.8 °F 56% 30.21 in 10.0 mi North 4.6 mph - N/A   Clear
9:16 AM 37.4 °F 33.8 °F 21.0 °F 52% 30.21 in 10.0 mi North 4.6 mph - N/A   Clear
9:36 AM 38.1 °F 32.3 °F 19.4 °F 47% 30.22 in 10.0 mi North 8.1 mph - N/A   Clear
9:56 AM 38.5 °F 35.0 °F 19.2 °F 46% 30.22 in 10.0 mi North 4.6 mph - N/A   Clear
10:36 AM 39.9 °F 36.7 °F 17.4 °F 40% 30.21 in 10.0 mi North 4.6 mph - N/A   Clear
10:56 AM 40.8 °F 34.1 °F 14.4 °F 34% 30.21 in 10.0 mi North 11.5 mph - N/A   Clear
11:16 AM 41.2 °F 35.5 °F 13.8 °F 33% 30.21 in 10.0 mi North 9.2 mph - N/A   Clear
11:36 AM 41.4 °F 36.2 °F 13.6 °F 32% 30.21 in 10.0 mi North 8.1 mph - N/A   Clear
11:56 AM 42.6 °F 36.8 °F 15.4 °F 33% 30.21 in 10.0 mi North 10.4 mph - N/A   Clear
12:16 PM 42.8 °F 38.6 °F 14.4 °F 32% 30.22 in 10.0 mi North 6.9 mph - N/A   Clear
12:36 PM 43.9 °F 39.9 °F 15.8 °F 32% 30.22 in 10.0 mi North 6.9 mph - N/A   Clear
12:56 PM 43.2 °F 41.5 °F 15.6 °F 33% 30.22 in 10.0 mi NE 3.5 mph - N/A   Clear
1:16 PM 42.3 °F 36.8 °F 22.5 °F 45% 30.22 in 10.0 mi WSW 9.2 mph - N/A   Clear
1:36 PM 40.5 °F 34.6 °F 23.9 °F 52% 30.22 in 10.0 mi West 9.2 mph 17.3 mph N/A   Clear
1:56 PM 41.7 °F 39.8 °F 22.8 °F 47% 30.22 in 10.0 mi West 3.5 mph - N/A   Clear
2:16 PM 44.2 °F 39.2 °F 19.9 °F 38% 30.21 in 10.0 mi WNW 9.2 mph - N/A   Clear
2:36 PM 43.2 °F 39.0 °F 24.1 °F 47% 30.22 in 10.0 mi West 6.9 mph - N/A   Clear
2:56 PM 45.5 °F 41.8 °F 22.3 °F 40% 30.21 in 10.0 mi NNE 6.9 mph - N/A   Clear
3:16 PM 45.9 °F 40.4 °F 19.9 °F 36% 30.21 in 10.0 mi North 11.5 mph - N/A   Clear
3:36 PM 45.7 °F 40.2 °F 18.3 °F 34% 30.21 in 10.0 mi NNE 11.5 mph - N/A   Clear
3:56 PM 45.3 °F 39.0 °F 17.2 °F 33% 30.21 in 10.0 mi North 13.8 mph 18.4 mph N/A   Clear
4:16 PM 44.6 °F 38.8 °F 18.9 °F 36% 30.21 in 10.0 mi NNE 11.5 mph 16.1 mph N/A   Clear
4:36 PM 44.1 °F 38.1 °F 17.4 °F 34% 30.21 in 10.0 mi NNE 11.5 mph 19.6 mph N/A   Clear
4:56 PM 44.6 °F 38.8 °F 16.9 °F 33% 30.21 in 10.0 mi NNE 11.5 mph 18.4 mph N/A   Clear
5:16 PM 43.5 °F 37.5 °F 15.8 °F 33% 30.21 in 10.0 mi North 11.5 mph 19.6 mph N/A   Clear
5:36 PM 43.5 °F 37.9 °F 15.4 °F 32% 30.21 in 10.0 mi North 10.4 mph 19.6 mph N/A   Clear
5:56 PM 43.2 °F 36.6 °F 13.6 °F 30% 30.21 in 10.0 mi North 12.7 mph 18.4 mph N/A   Clear
6:16 PM 43.0 °F 36.8 °F 12.4 °F 29% 30.22 in 10.0 mi NNE 11.5 mph - N/A   Clear
6:36 PM 42.6 °F 36.8 °F 12.7 °F 30% 30.22 in 10.0 mi North 10.4 mph - N/A   Clear
6:56 PM 42.3 °F 37.3 °F 11.3 °F 28% 30.22 in 10.0 mi North 8.1 mph - N/A   Clear
7:16 PM 41.7 °F 36.7 °F 12.9 °F 31% 30.22 in 10.0 mi North 8.1 mph - N/A   Clear
7:36 PM 41.4 °F 37.6 °F 14.5 °F 34% 30.22 in 10.0 mi North 5.8 mph - N/A   Clear
7:56 PM 39.4 °F 35.2 °F 16.9 °F 40% 30.23 in 10.0 mi North 5.8 mph - N/A   Clear
8:16 PM 38.5 °F 34.1 °F 17.4 °F 43% 30.24 in 10.0 mi North 5.8 mph - N/A   Clear
8:36 PM 37.6 °F 32.3 °F 18.3 °F 46% 30.24 in 10.0 mi NNE 6.9 mph - N/A   Clear
8:56 PM 37.0 °F 31.6 °F 18.1 °F 46% 30.25 in 10.0 mi NNE 6.9 mph - N/A   Clear
9:16 PM 36.3 °F 30.1 °F 18.1 °F 48% 30.25 in 10.0 mi NNE 8.1 mph - N/A   Clear
9:36 PM 35.6 °F 28.6 °F 18.3 °F 50% 30.26 in 10.0 mi NNE 9.2 mph - N/A   Clear
10:16 PM 34.9 °F 29.0 °F 18.5 °F 51% 30.27 in 10.0 mi North 6.9 mph - N/A   Clear
10:36 PM 34.0 °F 28.0 °F 19.2 °F 55% 30.27 in 10.0 mi NNE 6.9 mph - N/A   Clear
10:56 PM 33.3 °F 26.4 °F 19.9 °F 58% 30.27 in 10.0 mi NNE 8.1 mph - N/A   Clear
11:16 PM 33.3 °F 25.7 °F 21.2 °F 61% 30.27 in 10.0 mi NNE 9.2 mph - N/A   Clear
11:36 PM 33.1 °F 26.1 °F 23.0 °F 66% 30.27 in 10.0 mi NNE 8.1 mph - N/A   Clear
11:56 PM 32.7 °F 27.3 °F 23.7 °F 69% 30.28 in 10.0 mi North 5.8 mph - N/A   Clear